{"data":{"norad_id":85238,"intl_designator":"","name":"UNKNOWN","alt_names":[],"object_type":"UNKNOWN","status":"UNKNOWN","operator":null,"country":null,"launch_date":null,"launch_site_code":null,"launch_vehicle":null,"mission":null,"orbit_class":"UNKNOWN","rcs_meters":null,"size_class":null,"mass_kg":null,"dimensions":null,"purposes":[],"wikipedia_slug":null,"has_3d_model":false,"image_url":null,"decayed_at":null,"tle_current":{"epoch":"2026-09-18T13:02:25.032192Z","epoch_age_seconds":183513,"freshness":"STALE","line1":"1 85238U          26261.54334528  .00000025  00000+0  55582-4 0  9992","line2":"2 85238  99.0723 187.9723 0063489 163.3430  11.6709 13.88385341649664","mean_motion":13.88385341,"eccentricity":0.0063489,"inclination_deg":99.0723,"raan_deg":187.9723,"arg_perigee_deg":163.343,"mean_anomaly_deg":11.6709,"bstar":5.5582e-5,"rev_number":64966,"period_min":103.71760328172,"perigee_km":887.86889546675,"apogee_km":980.72069189656,"semimajor_km":7312.4317936817,"source":"CELESTRAK","updated_at":"2026-09-20T09:00:32.448010Z"}}}